Location: Casilda
(33.0440°S, 61.1680°W)
Time: 04:19:49
(UTC-03:00)

ISS - Pass Details

Date: 14 September 2017
Orbit: 401 x 407 km, 51.6° (Epoch: 23 September)

Event Time Altitude Azimuth Distance (km) Brightness Sun altitude
Rises 20:34:50 0° 235° (SW) 2,340 1.2 -21.4°
Reaches altitude 10° 20:37:02 10° 244° (WSW) 1,473 0.1 -21.9°
Maximum altitude 20:40:05 35° 311° (NW) 684 -2.4 -22.5°
Enters shadow 20:40:11 34° 316° (NW) 685 -2.5 -22.5°
